TimeCST,TemperatureF,Dew PointF,Humidity,Sea Level PressureIn,VisibilityMPH,Wind Direction,Wind SpeedMPH,Gust SpeedMPH,PrecipitationIn,Events,Conditions,WindDirDegrees,DateUTC
12:06 AM,-4.0,-7.6,85,30.19,3.0,WNW,24.2,-,N/A,Snow,Light Snow,300,2013-01-30 06:06:00
12:11 AM,-4.0,-7.6,85,30.19,2.5,WNW,26.5,-,N/A,Snow,Light Snow,300,2013-01-30 06:11:00
12:15 AM,-4.0,-7.6,85,30.19,2.5,WNW,26.5,-,N/A,Snow,Light Snow,300,2013-01-30 06:15:00
12:22 AM,-4.0,-9.4,78,30.19,3.0,WNW,23.0,-,N/A,Snow,Light Snow,300,2013-01-30 06:22:00
12:24 AM,-4.0,-9.4,78,30.18,3.0,WNW,24.2,-,N/A,Snow,Light Snow,300,2013-01-30 06:24:00
12:32 AM,-4.0,-9.4,78,30.17,2.5,WNW,28.8,-,N/A,Snow,Light Snow,300,2013-01-30 06:32:00
12:51 AM,-4.0,-9.4,78,30.18,3.0,WNW,25.3,-,N/A,Snow,Light Snow,300,2013-01-30 06:51:00
12:55 AM,-4.2,-9.4,78,30.19,3.0,WNW,21.9,-,0.00,Snow,Light Snow,290,2013-01-30 06:55:00
1:07 AM,-4.0,-9.4,78,30.19,3.0,WNW,25.3,-,N/A,Snow,Light Snow,300,2013-01-30 07:07:00
1:13 AM,-4.0,-9.4,78,30.19,3.0,WNW,23.0,-,N/A,Snow,Light Snow,290,2013-01-30 07:13:00
1:36 AM,-5.8,-11.2,77,30.18,4.0,WNW,24.2,-,N/A,Snow,Blowing Snow,300,2013-01-30 07:36:00
1:55 AM,-5.6,-10.8,78,30.18,3.0,WNW,24.2,29.9,0.00,Snow,Blowing Snow,300,2013-01-30 07:55:00
1:59 AM,-5.8,-11.2,77,30.17,2.5,WNW,27.6,-,N/A,Snow,Blowing Snow,300,2013-01-30 07:59:00
2:00 AM,-5.8,-11.2,77,30.17,2.5,WNW,27.6,-,N/A,Snow,Blowing Snow,300,2013-01-30 08:00:00
2:11 AM,-5.8,-11.2,77,30.16,3.0,WNW,24.2,-,N/A,Snow,Blowing Snow,300,2013-01-30 08:11:00
2:30 AM,-5.8,-11.2,77,30.16,3.0,WNW,23.0,-,N/A,Snow,Blowing Snow,300,2013-01-30 08:30:00
2:55 AM,-7.2,-12.8,77,30.16,3.0,WNW,21.9,-,0.00,Snow,Blowing Snow,300,2013-01-30 08:55:00
3:14 AM,-7.6,-13.0,77,30.15,3.0,WNW,25.3,-,N/A,Snow,Blowing Snow,300,2013-01-30 09:14:00
3:15 AM,-7.6,-13.0,77,30.15,3.0,NW,25.3,-,N/A,Snow,Blowing Snow,310,2013-01-30 09:15:00
3:17 AM,-7.6,-14.8,71,30.15,2.5,WNW,24.2,-,N/A,,Freezing Rain,300,2013-01-30 09:17:00
3:22 AM,-7.6,-14.8,71,30.15,3.0,NW,21.9,-,N/A,,Freezing Rain,310,2013-01-30 09:22:00
3:27 AM,-7.6,-14.8,71,30.15,4.0,NW,23.0,-,N/A,,Freezing Rain,310,2013-01-30 09:27:00
3:30 AM,-7.6,-14.8,71,30.15,5.0,WNW,20.7,-,N/A,,Freezing Rain,300,2013-01-30 09:30:00
3:32 AM,-9.4,-14.8,77,30.15,6.0,WNW,19.6,-,N/A,,Freezing Rain,300,2013-01-30 09:32:00
3:47 AM,-9.4,-14.8,77,30.14,5.0,WNW,21.9,-,N/A,,Freezing Rain,300,2013-01-30 09:47:00
3:50 AM,-9.4,-14.8,77,30.15,5.0,WNW,21.9,-,N/A,,Freezing Rain,300,2013-01-30 09:50:00
3:55 AM,-9.0,-14.8,76,30.15,6.0,WNW,18.4,-,0.00,,Haze,300,2013-01-30 09:55:00
4:03 AM,-9.4,-14.8,77,30.14,7.0,WNW,21.9,-,N/A,,Overcast,300,2013-01-30 10:03:00
4:55 AM,-9.9,-16.1,74,30.13,9.0,NW,17.3,-,N/A,,Overcast,310,2013-01-30 10:55:00
4:58 AM,-9.4,-16.6,71,30.13,9.0,NW,17.3,-,N/A,Snow,Light Snow,310,2013-01-30 10:58:00
5:11 AM,-9.4,-14.8,77,30.12,2.5,NW,20.7,-,N/A,Snow,Light Snow,310,2013-01-30 11:11:00
5:14 AM,-9.4,-14.8,77,30.12,2.5,NW,23.0,-,N/A,Snow,Light Snow,310,2013-01-30 11:14:00
5:33 AM,-9.4,-14.8,77,30.11,1.8,WNW,24.2,-,N/A,Snow,Light Snow,300,2013-01-30 11:33:00
5:37 AM,-9.4,-14.8,77,30.11,1.8,WNW,24.2,-,N/A,Snow,Light Snow,300,2013-01-30 11:37:00
5:43 AM,-9.4,-14.8,77,30.11,2.0,NW,24.2,-,N/A,Snow,Light Snow,310,2013-01-30 11:43:00
5:47 AM,-9.4,-14.8,77,30.11,2.0,NW,26.5,-,N/A,Snow,Light Snow,310,2013-01-30 11:47:00
5:49 AM,-9.4,-14.8,77,30.11,2.5,NW,24.2,-,N/A,Snow,Light Snow,310,2013-01-30 11:49:00
5:50 AM,-9.4,-16.6,71,30.11,3.0,NW,24.2,-,N/A,Snow,Light Snow,310,2013-01-30 11:50:00
5:51 AM,-9.4,-16.6,71,30.11,3.0,NW,23.0,-,N/A,Snow,Light Snow,310,2013-01-30 11:51:00
5:53 AM,-9.4,-16.6,71,30.10,4.0,NW,23.0,-,N/A,Snow,Light Snow,310,2013-01-30 11:53:00
5:55 AM,-10.1,-16.2,74,30.11,4.0,NW,23.0,-,0.00,Snow,Light Snow,310,2013-01-30 11:55:00
5:56 AM,-9.4,-16.6,71,30.11,5.0,NW,23.0,-,N/A,Snow,Light Snow,310,2013-01-30 11:56:00
6:19 AM,-11.2,-18.4,70,30.12,10.0,WNW,18.4,-,N/A,,Scattered Clouds,300,2013-01-30 12:19:00
6:55 AM,-12.3,-18.4,74,30.13,9.0,WNW,20.7,-,0.00,,Partly Cloudy,300,2013-01-30 12:55:00
7:31 AM,-13.0,-20.2,70,30.12,6.0,WNW,21.9,-,N/A,,Haze,300,2013-01-30 13:31:00
7:34 AM,-13.0,-20.2,70,30.13,6.0,WNW,19.6,-,N/A,,Haze,300,2013-01-30 13:34:00
7:52 AM,-14.8,-20.2,77,30.12,10.0,WNW,18.4,-,N/A,,Mostly Cloudy,300,2013-01-30 13:52:00
7:55 AM,-14.1,-20.4,73,30.13,10.0,WNW,19.6,-,N/A,,Mostly Cloudy,300,2013-01-30 13:55:00
8:55 AM,-15.0,-21.5,73,30.14,10.0,NW,15.0,-,N/A,,Overcast,310,2013-01-30 14:55:00
9:10 AM,-14.8,-22.0,70,30.14,10.0,NW,15.0,-,N/A,,Scattered Clouds,310,2013-01-30 15:10:00
9:55 AM,-15.5,-22.2,72,30.13,10.0,WNW,18.4,-,N/A,,Clear,300,2013-01-30 15:55:00
10:55 AM,-14.6,-21.6,71,30.13,10.0,WNW,18.4,-,N/A,,Clear,300,2013-01-30 16:55:00
11:55 AM,-13.0,-20.2,70,30.13,9.0,NW,19.6,-,N/A,,Clear,310,2013-01-30 17:55:00
12:55 PM,-12.5,-19.7,70,30.11,8.0,WNW,20.7,-,N/A,,Clear,300,2013-01-30 18:55:00
1:55 PM,-11.4,-18.9,69,30.09,10.0,WNW,18.4,-,N/A,,Clear,300,2013-01-30 19:55:00
2:55 PM,-11.0,-18.2,70,30.09,10.0,NW,17.3,-,N/A,,Partly Cloudy,310,2013-01-30 20:55:00
3:55 PM,-10.8,-18.0,70,30.10,9.0,NW,20.7,-,N/A,,Clear,310,2013-01-30 21:55:00
4:55 PM,-11.7,-18.9,70,30.09,10.0,NW,19.6,-,N/A,,Clear,310,2013-01-30 22:55:00
5:25 PM,-13.0,-20.2,70,30.10,10.0,WNW,19.6,-,N/A,,Mostly Cloudy,300,2013-01-30 23:25:00
5:52 PM,-13.0,-20.2,70,30.12,10.0,WNW,16.1,-,N/A,,Scattered Clouds,300,2013-01-30 23:52:00
5:55 PM,-13.7,-20.6,71,30.12,10.0,WNW,16.1,-,N/A,,Scattered Clouds,300,2013-01-30 23:55:00
6:55 PM,-14.4,-21.3,71,30.14,10.0,NW,16.1,-,N/A,,Clear,310,2013-01-31 00:55:00
7:55 PM,-16.1,-23.1,71,30.16,10.0,NW,16.1,-,N/A,,Clear,310,2013-01-31 01:55:00
8:55 PM,-17.3,-24.0,72,30.17,10.0,NW,12.7,-,N/A,,Clear,310,2013-01-31 02:55:00
9:55 PM,-17.5,-24.2,72,30.19,10.0,NW,15.0,-,N/A,,Clear,310,2013-01-31 03:55:00
10:55 PM,-17.5,-24.2,72,30.20,10.0,NW,17.3,-,N/A,,Clear,320,2013-01-31 04:55:00
11:55 PM,-18.0,-25.1,70,30.22,10.0,NW,18.4,-,N/A,,Clear,310,2013-01-31 05:55:00